Simultaneous Nadir Overpasses (SNOs) Predictions

Prediction of SNOs between GOES-17 and METOP-C Satellite Orbit:

Table of predicted SNOs for the next 14.0 days since TLE Epoch: 9/7/2024
Index Date Time (GOES-17) GOES-17 Lat,Lon METOP-C Lat,Lon Distance(km) Time Diff (sec)
1 09/09/2024 04:25:56 0.00,-104.68 0.12,-104.11 65.75 80
2 09/10/2024 16:44:50 0.00,-104.73 0.87,-108.68 450.13 80
3 09/11/2024 16:26:52 0.01,-104.72 -0.22,-103.68 118.45 80
4 09/13/2024 04:45:53 -0.01,-104.68 -0.84,-108.27 410.58 80
5 09/14/2024 04:22:34 -0.01,-104.67 0.27,-103.28 157.79 80
6 09/15/2024 16:41:28 0.01,-104.71 0.74,-107.85 358.25 80
7 09/16/2024 16:23:29 0.01,-104.71 -0.38,-102.86 210.47 80
8 09/18/2024 04:42:31 -0.01,-104.66 -0.65,-107.45 318.07 80
9 09/19/2024 04:19:12 -0.01,-104.66 0.48,-102.46 250.60 80
10 09/20/2024 16:38:04 0.01,-104.70 0.55,-107.02 265.01 80
